Zurück zum Katalog

SCOT-1

SCOT

AktivMilitärSSO
NORAD 62617·PAYLOAD·🇸🇬 Singapore

Gestartet Jan 14, 2025 von Vandenberg Space Force Base

Loading…

Nächste Überflüge (nächste 24 Stunden)

TLE

AktuellSource: Space-Track

Epoche: Sep 13, 2026, 18:35 UTC

1 62617U 25009J   26256.77448216  .00104205  00000-0  94047-3 0  9997
2 62617  97.3796 348.1858 0002231 283.3405  76.7607 15.67814968 93162

Verfolge SCOT-1 in Echtzeit mit AllMySat

Download on the App Store